Skip Page Navigation
NASA JPL Caltech
NASA Logo - Jet Propulsion Laboratory + View the NASA Portal
+ Near-Earth Object (NEO) Program
Search JPL
JPL Home Earth Solar System Stars & Galaxies Technology
JPL Solar System Dynamics
BODIES ORBITS EPHEMERIDES TOOLS PHYSICAL DATA DISCOVERY FAQ SITE MAP
JPL Small-Body Database Browser
Search: [ help ]  
152754 (1999 GS6)
Classification: Apollo [NEO, PHA]          SPK-ID: 2152754
Ephemeris | Orbit Diagram | Orbital Elements | Physical Parameters | Discovery Circumstances | Close-Approach Data ]

[ hide orbit diagram ]
Orbit Diagram
Note: Make sure you have Java enabled on your browser to see the applet. This applet is provided as a 3D orbit visualization tool. The applet was implemented using 2-body methods, and hence should not be used for determining accurate long-term trajectories (over several years or decades) or planetary encounter circumstances. For accurate long-term ephemerides, please instead use our Horizons system.
Orbit Viewer

Additional Notes: the orbits shown in the applet are color coded. The planets are white lines, and the asteroid/comet is a blue line. The bright white line indicates the portion of the orbit that is above the ecliptic plane, and the darker portion is below the ecliptic plane. Likewise for the asteroid/comet orbit, the light blue indicates the portion above the ecliptic plane, and the dark blue the portion below the ecliptic plane.

Orbit Viewer applet originally written and kindly provided by Osamu Ajiki (AstroArts), and further modified by Ron Baalke (JPL).


Orbital Elements at Epoch 2456400.5 (2013-Apr-18.0) TDB
Reference: JPL 41 (heliocentric ecliptic J2000)
 Element Value Uncertainty (1-sigma)   Units 
e .4974542428598917 2.5922e-08  
a 1.190914348423874 2.1778e-09 AU
q .5984889529176947 3.1078e-08 AU
i 2.020913152805916 4.5401e-06 deg
node 314.5677275046042 0.00010372 deg
peri 134.8398508435963 0.00010818 deg
M 338.7441554128548 1.9239e-05 deg
tp 2456428.528191997793
(2013-May-16.02819200)
2.5352e-05 JED
period 474.6999855892689
1.30
1.3021e-06
3.565e-09
d
yr
n .7583737327337685 2.0802e-09 deg/d
Q 1.783339743930054 3.2612e-09 AU
  Orbit Determination Parameters
   # obs. used (total)      249  
   data-arc span      4785 days (13.10 yr)  
   first obs. used      1999-04-15  
   last obs. used      2012-05-21  
   planetary ephem.      DE405  
   SB-pert. ephem.      SB405-CPV-2  
   condition code      0  
   fit RMS      .49856  
   data source      ORB  
   producer      Otto Matic  
   solution date      2013-Apr-29 15:39:14  

Additional Information
 Earth MOID = .0188176 AU 
 T_jup = 5.199 
[ show covariance matrix ]

Ephemeris | Orbit Diagram | Orbital Elements | Physical Parameters | Discovery Circumstances | Close-Approach Data ]

Physical Parameter Table
Parameter Symbol Value Units Sigma Reference Notes
absolute magnitude H 19.4 mag .76573 41 autocmod 2.5c

152754 (1999 GS6)          Discovered 1999-Apr-15 by LINEAR at Socorro (704)
Reference: 20070402/Numbers.arcLast Updated: 2007-04-04

[ show close-approach data ]
Ephemeris | Orbit Diagram | Orbital Elements | Physical Parameters | Discovery Circumstances | Close-Approach Data ]
ABOUT SSD CREDITS/AWARDS PRIVACY/COPYRIGHT GLOSSARY LINKS
FirstGov 2013-May-25 12:12 UT
(server date/time)  
NASA Home Page
Site Manager:   Donald K. Yeomans
Webmaster  Alan B. Chamberlin